{"data":{"norad_id":52990,"intl_designator":"2022-076E","name":"STARLINK-4286","alt_names":[],"object_type":"PAYLOAD","status":"ACTIVE","operator":null,"country":"US","launch_date":"2022-07-07","launch_site_code":"AFETR","launch_vehicle":null,"mission":null,"orbit_class":"UNKNOWN","rcs_meters":null,"size_class":null,"mass_kg":null,"dimensions":null,"purposes":["comms"],"wikipedia_slug":null,"has_3d_model":false,"image_url":null,"decayed_at":null,"tle_current":{"epoch":"2026-05-25T02:50:36.631392Z","epoch_age_seconds":60999,"freshness":"FRESH","line1":"1 52990U 22076E   26145.11847953 -.00002206  00000+0 -12055-3 0  9995","line2":"2 52990  53.2127 121.0206 0001007  77.9099 282.2006 15.08853119214242","mean_motion":15.08853119,"eccentricity":0.0001007,"inclination_deg":53.2127,"raan_deg":121.0206,"arg_perigee_deg":77.9099,"mean_anomaly_deg":282.2006,"bstar":-0.00012055,"rev_number":21424,"period_min":95.436724878454,"perigee_km":539.00666320281,"apogee_km":540.39991623716,"semimajor_km":6917.84028972,"source":"CELESTRAK","updated_at":"2026-05-25T13:38:17.274297Z"}}}